Weather History for Rifle, CO

Change the Weather History Date:

Sunday, April 21, 2013

  Actual Average Record
Temperature  
Mean Temperature 46 °F 49 °F  
Max Temperature 59 °F 64 °F 85 °F (1936)
Min Temperature 33 °F 35 °F 17 °F (1982)
Degree Days  
Heating Degree Days 19 16  
Month to date heating degree days 482 385  
Since 1 July heating degree days 6296 6169  
Cooling Degree Days 0 0  
Month to date cooling degree days 0 0  
Year to date cooling degree days 0 0  
Moisture  
Dew Point 32 °F    
Average Humidity 60    
Maximum Humidity 100    
Minimum Humidity 19    
Precipitation  
Precipitation 0.00 in 0.04 in 0.72 in (1985)
Month to date precipitation 1.46 0.81  
Year to date precipitation 2.78 3.58  
Sea Level Pressure  
Sea Level Pressure 30.11 in    
Wind  
Wind Speed 6 mph (West)    
Max Wind Speed 24 mph    
Max Gust Speed 31 mph    
Visibility 7 miles    
Events Fog    
T = Trace of Precipitation, MM = Missing Value Source: NWS Daily Summary

Daily Weather History Graph

Daily Weather History Graph

Search for Another Location

Airport:

Trip Planner

Search our weather history database for the weather conditions in past years. The results will help you decide how hot, cold, wet, or windy it might be!

Date:

Astronomy

Apr. 21, 2013 Rise Set
Actual Time 6:24 AM MDT 7:55 PM MDT
Civil Twilight 5:56 AM MDT 8:23 PM MDT
Nautical Twilight 5:22 AM MDT 8:57 PM MDT
Astronomical Twilight 4:46 AM MDT 9:33 PM MDT
Moon 3:44 PM MDT (4/21) 3:47 AM MDT (4/21)
Length of Visible Light 14h 27m
Length of Day
13h 30m
Waxing Gibbous, 80% of the Moon is Illuminated
Apr 21
Waxing Gibbous
Apr 25
Full
May 2
Last Quarter
May 9
New
May 17
First Quarter

Hourly Weather History & Observations

Time (MDT) Temp. Windchill Dew Point Humidity Pressure Visibility Wind Dir Wind Speed Gust Speed Precip Events Conditions
12:53 AM 37.0 °F 34.5 °F 35.1 °F 93% 30.13 in 10.0 mi SSW 3.5 mph - N/A   Scattered Clouds
1:53 AM 35.1 °F 32.2 °F 33.1 °F 92% 30.14 in 10.0 mi WSW 3.5 mph - N/A   Mostly Cloudy
2:53 AM 35.1 °F - 34.0 °F 96% 30.12 in 10.0 mi Calm Calm - N/A   Overcast
3:53 AM 35.1 °F - 34.0 °F 96% 30.13 in 10.0 mi Calm Calm - N/A   Overcast
4:41 AM 33.8 °F - 33.8 °F 100% 30.16 in 1.5 mi Calm Calm - N/A   Mostly Cloudy
4:53 AM 34.0 °F - 34.0 °F 100% 30.14 in 5.0 mi Calm Calm - N/A   Mostly Cloudy
5:05 AM 33.8 °F 30.8 °F 33.8 °F 100% 30.17 in 1.2 mi WSW 3.5 mph - N/A   Overcast
5:12 AM 33.8 °F 30.8 °F 33.8 °F 100% 30.17 in 0.2 mi SW 3.5 mph - N/A Fog Fog
5:21 AM 33.8 °F - 33.8 °F 100% 30.17 in 1.8 mi Calm Calm - N/A   Overcast
5:28 AM 33.8 °F - 33.8 °F 100% 30.17 in 6.0 mi Calm Calm - N/A   Overcast
5:53 AM 34.0 °F 29.8 °F 33.1 °F 96% 30.16 in 10.0 mi WSW 4.6 mph - N/A   Overcast
6:53 AM 34.0 °F - 32.0 °F 92% 30.17 in 10.0 mi Calm Calm - N/A   Clear
7:13 AM 33.8 °F - 33.8 °F 100% 30.20 in 1.5 mi Calm Calm - N/A   Partly Cloudy
7:16 AM 33.8 °F - 33.8 °F 100% 30.19 in 0.8 mi Calm Calm - N/A   Partly Cloudy
7:28 AM 33.8 °F - 33.8 °F 100% 30.20 in 0.2 mi Calm Calm - N/A Fog Fog
7:45 AM 33.8 °F - 33.8 °F 100% 30.20 in 1.8 mi Calm Calm - N/A   Overcast
7:53 AM 35.1 °F - 35.1 °F 100% 30.18 in 5.0 mi Calm Calm - N/A   Overcast
7:56 AM 35.6 °F - 35.6 °F 100% 30.20 in 0.8 mi Calm Calm - N/A   Overcast
8:26 AM 35.6 °F - 35.6 °F 100% 30.20 in 1.5 mi Calm Calm - N/A   Mostly Cloudy
8:29 AM 37.4 °F - 37.4 °F 100% 30.20 in 3.0 mi Calm Calm - N/A   Mostly Cloudy
8:42 AM 37.4 °F - 35.6 °F 93% 30.20 in 10.0 mi Calm Calm - N/A   Partly Cloudy
8:53 AM 37.9 °F 35.5 °F 36.0 °F 93% 30.19 in 10.0 mi Variable 3.5 mph - N/A   Partly Cloudy
9:53 AM 43.0 °F - 36.0 °F 76% 30.17 in 10.0 mi Calm Calm - N/A   Clear
10:53 AM 46.0 °F 43.1 °F 34.0 °F 63% 30.14 in 10.0 mi Variable 5.8 mph - N/A   Clear
11:53 AM 50.0 °F - 33.1 °F 52% 30.11 in 10.0 mi WNW 6.9 mph - N/A   Clear
12:53 PM 52.0 °F - 34.0 °F 50% 30.08 in 10.0 mi WNW 8.1 mph 24.2 mph N/A   Clear
1:53 PM 54.0 °F - 30.9 °F 41% 30.05 in 10.0 mi West 9.2 mph 20.7 mph N/A   Clear
2:53 PM 55.9 °F - 30.0 °F 37% 30.01 in 10.0 mi WNW 12.7 mph 25.3 mph N/A   Clear
3:53 PM 57.0 °F - 28.0 °F 33% 30.00 in 10.0 mi West 18.4 mph 27.6 mph N/A   Clear
4:53 PM 59.0 °F - 19.9 °F 22% 29.96 in 10.0 mi West 15.0 mph 28.8 mph N/A   Clear
5:53 PM 59.0 °F - 21.0 °F 23% 29.95 in 10.0 mi WNW 10.4 mph 20.7 mph N/A   Clear
6:53 PM 57.9 °F - 16.0 °F 19% 29.94 in 10.0 mi WSW 21.9 mph 31.1 mph N/A   Clear
7:53 PM 53.1 °F - 19.9 °F 27% 29.97 in 10.0 mi West 15.0 mph - N/A   Clear
8:53 PM 48.0 °F - 24.1 °F 39% 29.97 in 10.0 mi SW 8.1 mph - N/A   Clear
9:53 PM 43.0 °F 41.3 °F 30.9 °F 62% 29.99 in 10.0 mi Variable 3.5 mph - N/A   Clear
10:53 PM 44.1 °F 42.5 °F 28.9 °F 55% 29.96 in 10.0 mi ENE 3.5 mph - N/A   Clear
11:53 PM 41.0 °F 39.0 °F 30.9 °F 67% 29.95 in 10.0 mi NW 3.5 mph - N/A   Clear